owner,sensor,date,latitude,longitude,sea_surface_height_above_sea_level,qcFlag 
COMPS,ioos:station:USF.COMPS:ARP:1,2015-01-01T00:00:00Z,28.4330,-82.6670,0.056,1111122 
COMPS,ioos:station:USF.COMPS:ARP:1,2015-01-01T00:06:00Z,28.4330,-82.6670,0.066,1111122 
COMPS,ioos:station:USF.COMPS:ARP:1,2015-01-01T00:12:00Z,28.4330,-82.6670,0.077,1111122 
COMPS,ioos:station:USF.COMPS:ARP:1,2015-01-01T00:18:00Z,28.4330,-82.6670,0.087,1111122 
COMPS,ioos:station:USF.COMPS:ARP:1,2015-01-01T00:24:00Z,28.4330,-82.6670,0.096,1111122 
COMPS,ioos:station:USF.COMPS:ARP:1,2015-01-01T00:30:00Z,28.4330,-82.6670,0.106,1111122 
COMPS,ioos:station:USF.COMPS:ARP:1,2015-01-01T00:36:00Z,28.4330,-82.6670,0.114,1111122 
COMPS,ioos:station:USF.COMPS:ARP:1,2015-01-01T00:42:00Z,28.4330,-82.6670,0.118,1111122 
COMPS,ioos:station:USF.COMPS:ARP:1,2015-01-01T00:48:00Z,28.4330,-82.6670,0.126,1111122 
COMPS,ioos:station:USF.COMPS:ARP:1,2015-01-01T00:54:00Z,28.4330,-82.6670,0.128,1111122 
COMPS,ioos:station:USF.COMPS:ARP:1,2015-01-01T01:00:00Z,28.4330,-82.6670,0.125,1111122 
COMPS,ioos:station:USF.COMPS:ARP:1,2015-01-01T01:06:00Z,28.4330,-82.6670,0.124,1111122 
COMPS,ioos:station:USF.COMPS:ARP:1,2015-01-01T01:12:00Z,28.4330,-82.6670,0.125,1111122 
COMPS,ioos:station:USF.COMPS:ARP:1,2015-01-01T01:18:00Z,28.4330,-82.6670,0.128,1111122 
COMPS,ioos:station:USF.COMPS:ARP:1,2015-01-01T01:24:00Z,28.4330,-82.6670,0.132,1111122 
COMPS,ioos:station:USF.COMPS:ARP:1,2015-01-01T01:30:00Z,28.4330,-82.6670,0.138,1111122 
COMPS,ioos:station:USF.COMPS:ARP:1,2015-01-01T01:36:00Z,28.4330,-82.6670,0.146,1111122 
COMPS,ioos:station:USF.COMPS:ARP:1,2015-01-01T01:42:00Z,28.4330,-82.6670,0.149,1111122 
COMPS,ioos:station:USF.COMPS:ARP:1,2015-01-01T01:48:00Z,28.4330,-82.6670,0.156,1111122 
COMPS,ioos:station:USF.COMPS:ARP:1,2015-01-01T01:54:00Z,28.4330,-82.6670,0.162,1111122 
COMPS,ioos:station:USF.COMPS:ARP:1,2015-01-01T02:00:00Z,28.4330,-82.6670,0.17,1111122 
COMPS,ioos:station:USF.COMPS:ARP:1,2015-01-01T02:06:00Z,28.4330,-82.6670,0.174,1111122 
COMPS,ioos:station:USF.COMPS:ARP:1,2015-01-01T02:12:00Z,28.4330,-82.6670,0.177,1111122 
COMPS,ioos:station:USF.COMPS:ARP:1,2015-01-01T02:18:00Z,28.4330,-82.6670,0.181,1111122 
COMPS,ioos:station:USF.COMPS:ARP:1,2015-01-01T02:24:00Z,28.4330,-82.6670,0.183,1111122 
COMPS,ioos:station:USF.COMPS:ARP:1,2015-01-01T02:30:00Z,28.4330,-82.6670,0.182,1111122 
COMPS,ioos:station:USF.COMPS:ARP:1,2015-01-01T02:36:00Z,28.4330,-82.6670,0.191,1111122 
COMPS,ioos:station:USF.COMPS:ARP:1,2015-01-01T02:42:00Z,28.4330,-82.6670,0.191,1111122 
COMPS,ioos:station:USF.COMPS:ARP:1,2015-01-01T02:48:00Z,28.4330,-82.6670,0.194,1111122 
COMPS,ioos:station:USF.COMPS:ARP:1,2015-01-01T02:54:00Z,28.4330,-82.6670,0.193,1111122 
COMPS,ioos:station:USF.COMPS:ARP:1,2015-01-01T03:00:00Z,28.4330,-82.6670,0.182,1111122 
COMPS,ioos:station:USF.COMPS:ARP:1,2015-01-01T03:06:00Z,28.4330,-82.6670,0.17,1111122 
COMPS,ioos:station:USF.COMPS:ARP:1,2015-01-01T03:12:00Z,28.4330,-82.6670,0.158,1111122 
COMPS,ioos:station:USF.COMPS:ARP:1,2015-01-01T03:18:00Z,28.4330,-82.6670,0.143,1111122 
COMPS,ioos:station:USF.COMPS:ARP:1,2015-01-01T03:24:00Z,28.4330,-82.6670,0.128,1111122 
COMPS,ioos:station:USF.COMPS:ARP:1,2015-01-01T03:30:00Z,28.4330,-82.6670,0.119,1111122 
COMPS,ioos:station:USF.COMPS:ARP:1,2015-01-01T03:36:00Z,28.4330,-82.6670,0.117,1111122 
COMPS,ioos:station:USF.COMPS:ARP:1,2015-01-01T03:42:00Z,28.4330,-82.6670,0.118,1111122 
COMPS,ioos:station:USF.COMPS:ARP:1,2015-01-01T03:48:00Z,28.4330,-82.6670,0.12,1111122 
COMPS,ioos:station:USF.COMPS:ARP:1,2015-01-01T03:54:00Z,28.4330,-82.6670,0.116,1111122 
COMPS,ioos:station:USF.COMPS:ARP:1,2015-01-01T04:00:00Z,28.4330,-82.6670,0.114,1111122 
COMPS,ioos:station:USF.COMPS:ARP:1,2015-01-01T04:06:00Z,28.4330,-82.6670,0.111,1111122 
COMPS,ioos:station:USF.COMPS:ARP:1,2015-01-01T04:12:00Z,28.4330,-82.6670,0.094,1111122 
COMPS,ioos:station:USF.COMPS:ARP:1,2015-01-01T04:18:00Z,28.4330,-82.6670,0.085,1111122 
COMPS,ioos:station:USF.COMPS:ARP:1,2015-01-01T04:24:00Z,28.4330,-82.6670,0.077,1111122 
COMPS,ioos:station:USF.COMPS:ARP:1,2015-01-01T04:30:00Z,28.4330,-82.6670,0.067,1111122 
COMPS,ioos:station:USF.COMPS:ARP:1,2015-01-01T04:36:00Z,28.4330,-82.6670,0.06,1111122 
COMPS,ioos:station:USF.COMPS:ARP:1,2015-01-01T04:42:00Z,28.4330,-82.6670,0.049,1111122 
COMPS,ioos:station:USF.COMPS:ARP:1,2015-01-01T04:48:00Z,28.4330,-82.6670,0.041,1111122 
COMPS,ioos:station:USF.COMPS:ARP:1,2015-01-01T04:54:00Z,28.4330,-82.6670,0.03,1111122 
COMPS,ioos:station:USF.COMPS:ARP:1,2015-01-01T05:00:00Z,28.4330,-82.6670,0.014,1111122 
COMPS,ioos:station:USF.COMPS:ARP:1,2015-01-01T05:06:00Z,28.4330,-82.6670,0.008,1111122 
COMPS,ioos:station:USF.COMPS:ARP:1,2015-01-01T05:12:00Z,28.4330,-82.6670,-0.005,1111122 
COMPS,ioos:station:USF.COMPS:ARP:1,2015-01-01T05:18:00Z,28.4330,-82.6670,-0.02,1111122 
COMPS,ioos:station:USF.COMPS:ARP:1,2015-01-01T05:24:00Z,28.4330,-82.6670,-0.033,1111122 
COMPS,ioos:station:USF.COMPS:ARP:1,2015-01-01T05:30:00Z,28.4330,-82.6670,-0.043,1111122 
COMPS,ioos:station:USF.COMPS:ARP:1,2015-01-01T05:36:00Z,28.4330,-82.6670,-0.06,1111122 
COMPS,ioos:station:USF.COMPS:ARP:1,2015-01-01T05:42:00Z,28.4330,-82.6670,-0.077,1111122 
COMPS,ioos:station:USF.COMPS:ARP:1,2015-01-01T05:48:00Z,28.4330,-82.6670,-0.091,1111122 
COMPS,ioos:station:USF.COMPS:ARP:1,2015-01-01T05:54:00Z,28.4330,-82.6670,-0.103,1111122 
COMPS,ioos:station:USF.COMPS:ARP:1,2015-01-01T06:00:00Z,28.4330,-82.6670,-0.116,1111122 
COMPS,ioos:station:USF.COMPS:ARP:1,2015-01-01T06:12:00Z,28.4330,-82.6670,-0.144,1111122 
COMPS,ioos:station:USF.COMPS:ARP:1,2015-01-01T06:18:00Z,28.4330,-82.6670,-0.156,1111122 
COMPS,ioos:station:USF.COMPS:ARP:1,2015-01-01T06:24:00Z,28.4330,-82.6670,-0.17,1111122 
COMPS,ioos:station:USF.COMPS:ARP:1,2015-01-01T06:30:00Z,28.4330,-82.6670,-0.183,1111122 
COMPS,ioos:station:USF.COMPS:ARP:1,2015-01-01T06:36:00Z,28.4330,-82.6670,-0.197,1111122 
COMPS,ioos:station:USF.COMPS:ARP:1,2015-01-01T06:42:00Z,28.4330,-82.6670,-0.21,1111122 
COMPS,ioos:station:USF.COMPS:ARP:1,2015-01-01T06:48:00Z,28.4330,-82.6670,-0.221,1111122 
COMPS,ioos:station:USF.COMPS:ARP:1,2015-01-01T06:54:00Z,28.4330,-82.6670,-0.232,1111122 
COMPS,ioos:station:USF.COMPS:ARP:1,2015-01-01T07:00:00Z,28.4330,-82.6670,-0.244,1111122 
COMPS,ioos:station:USF.COMPS:ARP:1,2015-01-01T07:06:00Z,28.4330,-82.6670,-0.258,1111122 
COMPS,ioos:station:USF.COMPS:ARP:1,2015-01-01T07:12:00Z,28.4330,-82.6670,-0.271,1111122 
COMPS,ioos:station:USF.COMPS:ARP:1,2015-01-01T07:18:00Z,28.4330,-82.6670,-0.282,1111122 
COMPS,ioos:station:USF.COMPS:ARP:1,2015-01-01T07:24:00Z,28.4330,-82.6670,-0.293,1111122 
COMPS,ioos:station:USF.COMPS:ARP:1,2015-01-01T07:30:00Z,28.4330,-82.6670,-0.307,1111122 
COMPS,ioos:station:USF.COMPS:ARP:1,2015-01-01T07:36:00Z,28.4330,-82.6670,-0.319,1111122 
COMPS,ioos:station:USF.COMPS:ARP:1,2015-01-01T07:42:00Z,28.4330,-82.6670,-0.329,1111122 
COMPS,ioos:station:USF.COMPS:ARP:1,2015-01-01T07:48:00Z,28.4330,-82.6670,-0.34,1111122 
COMPS,ioos:station:USF.COMPS:ARP:1,2015-01-01T07:54:00Z,28.4330,-82.6670,-0.351,1111122 
COMPS,ioos:station:USF.COMPS:ARP:1,2015-01-01T08:00:00Z,28.4330,-82.6670,-0.362,1111122 
COMPS,ioos:station:USF.COMPS:ARP:1,2015-01-01T08:06:00Z,28.4330,-82.6670,-0.374,1111122 
COMPS,ioos:station:USF.COMPS:ARP:1,2015-01-01T08:12:00Z,28.4330,-82.6670,-0.385,1111122 
COMPS,ioos:station:USF.COMPS:ARP:1,2015-01-01T08:18:00Z,28.4330,-82.6670,-0.396,1111122 
COMPS,ioos:station:USF.COMPS:ARP:1,2015-01-01T08:24:00Z,28.4330,-82.6670,-0.406,1111122 
COMPS,ioos:station:USF.COMPS:ARP:1,2015-01-01T08:30:00Z,28.4330,-82.6670,-0.416,1111122 
COMPS,ioos:station:USF.COMPS:ARP:1,2015-01-01T08:36:00Z,28.4330,-82.6670,-0.427,1111122 
COMPS,ioos:station:USF.COMPS:ARP:1,2015-01-01T08:42:00Z,28.4330,-82.6670,-0.436,1111122 
COMPS,ioos:station:USF.COMPS:ARP:1,2015-01-01T08:48:00Z,28.4330,-82.6670,-0.445,1111122 
COMPS,ioos:station:USF.COMPS:ARP:1,2015-01-01T08:54:00Z,28.4330,-82.6670,-0.455,1111122 
COMPS,ioos:station:USF.COMPS:ARP:1,2015-01-01T09:00:00Z,28.4330,-82.6670,-0.464,1111122 
COMPS,ioos:station:USF.COMPS:ARP:1,2015-01-01T09:06:00Z,28.4330,-82.6670,-0.473,1111122 
COMPS,ioos:station:USF.COMPS:ARP:1,2015-01-01T09:12:00Z,28.4330,-82.6670,-0.481,1111122 
COMPS,ioos:station:USF.COMPS:ARP:1,2015-01-01T09:18:00Z,28.4330,-82.6670,-0.488,1111122 
COMPS,ioos:station:USF.COMPS:ARP:1,2015-01-01T09:24:00Z,28.4330,-82.6670,-0.496,1111122 
COMPS,ioos:station:USF.COMPS:ARP:1,2015-01-01T09:30:00Z,28.4330,-82.6670,-0.503,1111122 
COMPS,ioos:station:USF.COMPS:ARP:1,2015-01-01T09:36:00Z,28.4330,-82.6670,-0.511,1111122 
COMPS,ioos:station:USF.COMPS:ARP:1,2015-01-01T09:42:00Z,28.4330,-82.6670,-0.518,1111122 
COMPS,ioos:station:USF.COMPS:ARP:1,2015-01-01T09:48:00Z,28.4330,-82.6670,-0.524,1111122 
COMPS,ioos:station:USF.COMPS:ARP:1,2015-01-01T09:54:00Z,28.4330,-82.6670,-0.53,1111122 
COMPS,ioos:station:USF.COMPS:ARP:1,2015-01-01T10:00:00Z,28.4330,-82.6670,-0.536,1111122 
COMPS,ioos:station:USF.COMPS:ARP:1,2015-01-01T10:06:00Z,28.4330,-82.6670,-0.542,1111122 
COMPS,ioos:station:USF.COMPS:ARP:1,2015-01-01T10:12:00Z,28.4330,-82.6670,-0.547,1111122 
COMPS,ioos:station:USF.COMPS:ARP:1,2015-01-01T10:18:00Z,28.4330,-82.6670,-0.553,1111122 
COMPS,ioos:station:USF.COMPS:ARP:1,2015-01-01T10:24:00Z,28.4330,-82.6670,-0.558,1111122 
COMPS,ioos:station:USF.COMPS:ARP:1,2015-01-01T10:30:00Z,28.4330,-82.6670,-0.563,1111122 
COMPS,ioos:station:USF.COMPS:ARP:1,2015-01-01T10:36:00Z,28.4330,-82.6670,-0.567,1111122 
COMPS,ioos:station:USF.COMPS:ARP:1,2015-01-01T10:42:00Z,28.4330,-82.6670,-0.571,1111122 
COMPS,ioos:station:USF.COMPS:ARP:1,2015-01-01T10:48:00Z,28.4330,-82.6670,-0.575,1111122 
COMPS,ioos:station:USF.COMPS:ARP:1,2015-01-01T10:54:00Z,28.4330,-82.6670,-0.58,1111122 
COMPS,ioos:station:USF.COMPS:ARP:1,2015-01-01T11:00:00Z,28.4330,-82.6670,-0.58,1111122 
COMPS,ioos:station:USF.COMPS:ARP:1,2015-01-01T11:06:00Z,28.4330,-82.6670,-0.589,1111122 
COMPS,ioos:station:USF.COMPS:ARP:1,2015-01-01T11:12:00Z,28.4330,-82.6670,-0.592,1111122 
COMPS,ioos:station:USF.COMPS:ARP:1,2015-01-01T11:18:00Z,28.4330,-82.6670,-0.595,1111122 
COMPS,ioos:station:USF.COMPS:ARP:1,2015-01-01T11:24:00Z,28.4330,-82.6670,-0.598,1111122 
COMPS,ioos:station:USF.COMPS:ARP:1,2015-01-01T11:30:00Z,28.4330,-82.6670,-0.6,1111122 
COMPS,ioos:station:USF.COMPS:ARP:1,2015-01-01T11:36:00Z,28.4330,-82.6670,-0.602,1111122 
COMPS,ioos:station:USF.COMPS:ARP:1,2015-01-01T11:42:00Z,28.4330,-82.6670,-0.602,1111122 
COMPS,ioos:station:USF.COMPS:ARP:1,2015-01-01T11:48:00Z,28.4330,-82.6670,-0.602,1111122 
COMPS,ioos:station:USF.COMPS:ARP:1,2015-01-01T11:54:00Z,28.4330,-82.6670,-0.599,1111122 
COMPS,ioos:station:USF.COMPS:ARP:1,2015-01-01T12:00:00Z,28.4330,-82.6670,-0.594,1111122 
COMPS,ioos:station:USF.COMPS:ARP:1,2015-01-01T12:06:00Z,28.4330,-82.6670,-0.59,1111122 
COMPS,ioos:station:USF.COMPS:ARP:1,2015-01-01T12:12:00Z,28.4330,-82.6670,-0.586,1111122 
COMPS,ioos:station:USF.COMPS:ARP:1,2015-01-01T12:18:00Z,28.4330,-82.6670,-0.58,1111122 
COMPS,ioos:station:USF.COMPS:ARP:1,2015-01-01T12:24:00Z,28.4330,-82.6670,-0.573,1111122 
COMPS,ioos:station:USF.COMPS:ARP:1,2015-01-01T12:30:00Z,28.4330,-82.6670,-0.565,1111122 
COMPS,ioos:station:USF.COMPS:ARP:1,2015-01-01T12:36:00Z,28.4330,-82.6670,-0.556,1111122 
COMPS,ioos:station:USF.COMPS:ARP:1,2015-01-01T12:42:00Z,28.4330,-82.6670,-0.546,1111122 
COMPS,ioos:station:USF.COMPS:ARP:1,2015-01-01T12:48:00Z,28.4330,-82.6670,-0.535,1111122 
COMPS,ioos:station:USF.COMPS:ARP:1,2015-01-01T12:54:00Z,28.4330,-82.6670,-0.523,1111122 
COMPS,ioos:station:USF.COMPS:ARP:1,2015-01-01T13:00:00Z,28.4330,-82.6670,-0.51,1111122 
COMPS,ioos:station:USF.COMPS:ARP:1,2015-01-01T13:06:00Z,28.4330,-82.6670,-0.495,1111122 
COMPS,ioos:station:USF.COMPS:ARP:1,2015-01-01T13:12:00Z,28.4330,-82.6670,-0.479,1111122 
COMPS,ioos:station:USF.COMPS:ARP:1,2015-01-01T13:18:00Z,28.4330,-82.6670,-0.463,1111122 
COMPS,ioos:station:USF.COMPS:ARP:1,2015-01-01T13:24:00Z,28.4330,-82.6670,-0.445,1111122 
COMPS,ioos:station:USF.COMPS:ARP:1,2015-01-01T13:30:00Z,28.4330,-82.6670,-0.426,1111122 
COMPS,ioos:station:USF.COMPS:ARP:1,2015-01-01T13:36:00Z,28.4330,-82.6670,-0.406,1111122 
COMPS,ioos:station:USF.COMPS:ARP:1,2015-01-01T13:42:00Z,28.4330,-82.6670,-0.386,1111122 
COMPS,ioos:station:USF.COMPS:ARP:1,2015-01-01T13:48:00Z,28.4330,-82.6670,-0.364,1111122 
COMPS,ioos:station:USF.COMPS:ARP:1,2015-01-01T13:54:00Z,28.4330,-82.6670,-0.343,1111122 
COMPS,ioos:station:USF.COMPS:ARP:1,2015-01-01T14:00:00Z,28.4330,-82.6670,-0.321,1111122 
COMPS,ioos:station:USF.COMPS:ARP:1,2015-01-01T14:06:00Z,28.4330,-82.6670,-0.3,1111122 
COMPS,ioos:station:USF.COMPS:ARP:1,2015-01-01T14:12:00Z,28.4330,-82.6670,-0.279,1111122 
COMPS,ioos:station:USF.COMPS:ARP:1,2015-01-01T14:18:00Z,28.4330,-82.6670,-0.259,1111122 
COMPS,ioos:station:USF.COMPS:ARP:1,2015-01-01T14:24:00Z,28.4330,-82.6670,-0.239,1111122 
COMPS,ioos:station:USF.COMPS:ARP:1,2015-01-01T14:30:00Z,28.4330,-82.6670,-0.22,1111122 
COMPS,ioos:station:USF.COMPS:ARP:1,2015-01-01T14:36:00Z,28.4330,-82.6670,-0.204,1111122 
COMPS,ioos:station:USF.COMPS:ARP:1,2015-01-01T14:42:00Z,28.4330,-82.6670,-0.187,1111122 
COMPS,ioos:station:USF.COMPS:ARP:1,2015-01-01T14:48:00Z,28.4330,-82.6670,-0.172,1111122 
COMPS,ioos:station:USF.COMPS:ARP:1,2015-01-01T14:54:00Z,28.4330,-82.6670,-0.159,1111122 
COMPS,ioos:station:USF.COMPS:ARP:1,2015-01-01T15:00:00Z,28.4330,-82.6670,-0.144,1111122 
COMPS,ioos:station:USF.COMPS:ARP:1,2015-01-01T15:06:00Z,28.4330,-82.6670,-0.131,1111122 
COMPS,ioos:station:USF.COMPS:ARP:1,2015-01-01T15:12:00Z,28.4330,-82.6670,-0.117,1111122 
COMPS,ioos:station:USF.COMPS:ARP:1,2015-01-01T15:18:00Z,28.4330,-82.6670,-0.103,1111122 
COMPS,ioos:station:USF.COMPS:ARP:1,2015-01-01T15:24:00Z,28.4330,-82.6670,-0.087,1111122 
COMPS,ioos:station:USF.COMPS:ARP:1,2015-01-01T15:30:00Z,28.4330,-82.6670,-0.073,1111122 
COMPS,ioos:station:USF.COMPS:ARP:1,2015-01-01T15:36:00Z,28.4330,-82.6670,-0.057,1111122 
COMPS,ioos:station:USF.COMPS:ARP:1,2015-01-01T15:42:00Z,28.4330,-82.6670,-0.045,1111122 
COMPS,ioos:station:USF.COMPS:ARP:1,2015-01-01T15:48:00Z,28.4330,-82.6670,-0.037,1111122 
COMPS,ioos:station:USF.COMPS:ARP:1,2015-01-01T15:54:00Z,28.4330,-82.6670,-0.028,1111122 
COMPS,ioos:station:USF.COMPS:ARP:1,2015-01-01T16:00:00Z,28.4330,-82.6670,-0.022,1111122 
COMPS,ioos:station:USF.COMPS:ARP:1,2015-01-01T16:06:00Z,28.4330,-82.6670,-0.013,1111122 
COMPS,ioos:station:USF.COMPS:ARP:1,2015-01-01T16:12:00Z,28.4330,-82.6670,-0.002,1111122 
COMPS,ioos:station:USF.COMPS:ARP:1,2015-01-01T16:18:00Z,28.4330,-82.6670,0.005,1111122 
COMPS,ioos:station:USF.COMPS:ARP:1,2015-01-01T16:24:00Z,28.4330,-82.6670,0.019,1111122 
COMPS,ioos:station:USF.COMPS:ARP:1,2015-01-01T16:30:00Z,28.4330,-82.6670,0.031,1111122 
COMPS,ioos:station:USF.COMPS:ARP:1,2015-01-01T16:36:00Z,28.4330,-82.6670,0.042,1111122 
COMPS,ioos:station:USF.COMPS:ARP:1,2015-01-01T16:42:00Z,28.4330,-82.6670,0.05,1111122 
COMPS,ioos:station:USF.COMPS:ARP:1,2015-01-01T16:48:00Z,28.4330,-82.6670,0.058,1111122 
COMPS,ioos:station:USF.COMPS:ARP:1,2015-01-01T16:54:00Z,28.4330,-82.6670,0.066,1111122 
COMPS,ioos:station:USF.COMPS:ARP:1,2015-01-01T17:00:00Z,28.4330,-82.6670,0.065,1111122 
COMPS,ioos:station:USF.COMPS:ARP:1,2015-01-01T17:06:00Z,28.4330,-82.6670,0.072,1111122 
COMPS,ioos:station:USF.COMPS:ARP:1,2015-01-01T17:12:00Z,28.4330,-82.6670,0.074,1111122 
COMPS,ioos:station:USF.COMPS:ARP:1,2015-01-01T17:18:00Z,28.4330,-82.6670,0.073,1111122 
COMPS,ioos:station:USF.COMPS:ARP:1,2015-01-01T17:24:00Z,28.4330,-82.6670,0.071,1111122 
COMPS,ioos:station:USF.COMPS:ARP:1,2015-01-01T17:30:00Z,28.4330,-82.6670,0.072,1111122 
COMPS,ioos:station:USF.COMPS:ARP:1,2015-01-01T17:36:00Z,28.4330,-82.6670,0.066,1111122 
COMPS,ioos:station:USF.COMPS:ARP:1,2015-01-01T17:42:00Z,28.4330,-82.6670,0.054,1111122 
COMPS,ioos:station:USF.COMPS:ARP:1,2015-01-01T17:48:00Z,28.4330,-82.6670,0.044,1111122 
COMPS,ioos:station:USF.COMPS:ARP:1,2015-01-01T17:54:00Z,28.4330,-82.6670,0.026,1111122 
COMPS,ioos:station:USF.COMPS:ARP:1,2015-01-01T18:00:00Z,28.4330,-82.6670,0.013,1111122 
COMPS,ioos:station:USF.COMPS:ARP:1,2015-01-01T18:06:00Z,28.4330,-82.6670,0.004,1111122 
COMPS,ioos:station:USF.COMPS:ARP:1,2015-01-01T18:12:00Z,28.4330,-82.6670,-0.005,1111122 
COMPS,ioos:station:USF.COMPS:ARP:1,2015-01-01T18:18:00Z,28.4330,-82.6670,-0.012,1111122 
COMPS,ioos:station:USF.COMPS:ARP:1,2015-01-01T18:24:00Z,28.4330,-82.6670,-0.021,1111122 
COMPS,ioos:station:USF.COMPS:ARP:1,2015-01-01T18:30:00Z,28.4330,-82.6670,-0.029,1111122 
COMPS,ioos:station:USF.COMPS:ARP:1,2015-01-01T18:36:00Z,28.4330,-82.6670,-0.039,1111122 
COMPS,ioos:station:USF.COMPS:ARP:1,2015-01-01T18:42:00Z,28.4330,-82.6670,-0.052,1111122 
COMPS,ioos:station:USF.COMPS:ARP:1,2015-01-01T18:48:00Z,28.4330,-82.6670,-0.06,1111122 
COMPS,ioos:station:USF.COMPS:ARP:1,2015-01-01T18:54:00Z,28.4330,-82.6670,-0.073,1111122 
COMPS,ioos:station:USF.COMPS:ARP:1,2015-01-01T19:00:00Z,28.4330,-82.6670,-0.082,1111122 
COMPS,ioos:station:USF.COMPS:ARP:1,2015-01-01T19:06:00Z,28.4330,-82.6670,-0.092,1111122 
COMPS,ioos:station:USF.COMPS:ARP:1,2015-01-01T19:12:00Z,28.4330,-82.6670,-0.095,1111122 
COMPS,ioos:station:USF.COMPS:ARP:1,2015-01-01T19:18:00Z,28.4330,-82.6670,-0.102,1111122 
COMPS,ioos:station:USF.COMPS:ARP:1,2015-01-01T19:24:00Z,28.4330,-82.6670,-0.112,1111122 
COMPS,ioos:station:USF.COMPS:ARP:1,2015-01-01T19:30:00Z,28.4330,-82.6670,-0.122,1111122 
COMPS,ioos:station:USF.COMPS:ARP:1,2015-01-01T19:36:00Z,28.4330,-82.6670,-0.132,1111122 
COMPS,ioos:station:USF.COMPS:ARP:1,2015-01-01T19:42:00Z,28.4330,-82.6670,-0.134,1111122 
COMPS,ioos:station:USF.COMPS:ARP:1,2015-01-01T19:48:00Z,28.4330,-82.6670,-0.141,1111122 
COMPS,ioos:station:USF.COMPS:ARP:1,2015-01-01T19:54:00Z,28.4330,-82.6670,-0.149,1111122 
COMPS,ioos:station:USF.COMPS:ARP:1,2015-01-01T20:00:00Z,28.4330,-82.6670,-0.154,1111122 
COMPS,ioos:station:USF.COMPS:ARP:1,2015-01-01T20:06:00Z,28.4330,-82.6670,-0.167,1111122 
COMPS,ioos:station:USF.COMPS:ARP:1,2015-01-01T20:12:00Z,28.4330,-82.6670,-0.173,1111122 
COMPS,ioos:station:USF.COMPS:ARP:1,2015-01-01T20:18:00Z,28.4330,-82.6670,-0.173,1111122 
COMPS,ioos:station:USF.COMPS:ARP:1,2015-01-01T20:24:00Z,28.4330,-82.6670,-0.177,1111122 
COMPS,ioos:station:USF.COMPS:ARP:1,2015-01-01T20:30:00Z,28.4330,-82.6670,-0.181,1111122 
COMPS,ioos:station:USF.COMPS:ARP:1,2015-01-01T20:36:00Z,28.4330,-82.6670,-0.182,1111122 
COMPS,ioos:station:USF.COMPS:ARP:1,2015-01-01T20:42:00Z,28.4330,-82.6670,-0.189,1111122 
COMPS,ioos:station:USF.COMPS:ARP:1,2015-01-01T20:48:00Z,28.4330,-82.6670,-0.196,1111122 
COMPS,ioos:station:USF.COMPS:ARP:1,2015-01-01T20:54:00Z,28.4330,-82.6670,-0.195,1111122 
COMPS,ioos:station:USF.COMPS:ARP:1,2015-01-01T21:00:00Z,28.4330,-82.6670,-0.202,1111122 
COMPS,ioos:station:USF.COMPS:ARP:1,2015-01-01T21:06:00Z,28.4330,-82.6670,-0.2,1111122 
COMPS,ioos:station:USF.COMPS:ARP:1,2015-01-01T21:12:00Z,28.4330,-82.6670,-0.194,1111122 
COMPS,ioos:station:USF.COMPS:ARP:1,2015-01-01T21:18:00Z,28.4330,-82.6670,-0.193,1111122 
COMPS,ioos:station:USF.COMPS:ARP:1,2015-01-01T21:24:00Z,28.4330,-82.6670,-0.189,1111122 
COMPS,ioos:station:USF.COMPS:ARP:1,2015-01-01T21:30:00Z,28.4330,-82.6670,-0.186,1111122 
COMPS,ioos:station:USF.COMPS:ARP:1,2015-01-01T21:36:00Z,28.4330,-82.6670,-0.191,1111122 
COMPS,ioos:station:USF.COMPS:ARP:1,2015-01-01T21:42:00Z,28.4330,-82.6670,-0.192,1111122 
COMPS,ioos:station:USF.COMPS:ARP:1,2015-01-01T21:48:00Z,28.4330,-82.6670,-0.181,1111122 
COMPS,ioos:station:USF.COMPS:ARP:1,2015-01-01T21:54:00Z,28.4330,-82.6670,-0.179,1111122 
COMPS,ioos:station:USF.COMPS:ARP:1,2015-01-01T22:00:00Z,28.4330,-82.6670,-0.172,1111122 
COMPS,ioos:station:USF.COMPS:ARP:1,2015-01-01T22:06:00Z,28.4330,-82.6670,-0.159,1111122 
COMPS,ioos:station:USF.COMPS:ARP:1,2015-01-01T22:12:00Z,28.4330,-82.6670,-0.149,1111122 
COMPS,ioos:station:USF.COMPS:ARP:1,2015-01-01T22:18:00Z,28.4330,-82.6670,-0.143,1111122 
COMPS,ioos:station:USF.COMPS:ARP:1,2015-01-01T22:24:00Z,28.4330,-82.6670,-0.133,1111122 
COMPS,ioos:station:USF.COMPS:ARP:1,2015-01-01T22:30:00Z,28.4330,-82.6670,-0.125,1111122 
COMPS,ioos:station:USF.COMPS:ARP:1,2015-01-01T22:36:00Z,28.4330,-82.6670,-0.117,1111122 
COMPS,ioos:station:USF.COMPS:ARP:1,2015-01-01T22:42:00Z,28.4330,-82.6670,-0.108,1111122 
COMPS,ioos:station:USF.COMPS:ARP:1,2015-01-01T22:48:00Z,28.4330,-82.6670,-0.097,1111122 
COMPS,ioos:station:USF.COMPS:ARP:1,2015-01-01T22:54:00Z,28.4330,-82.6670,-0.086,1111122 
COMPS,ioos:station:USF.COMPS:ARP:1,2015-01-01T23:06:00Z,28.4330,-82.6670,-0.057,1111122 
COMPS,ioos:station:USF.COMPS:ARP:1,2015-01-01T23:18:00Z,28.4330,-82.6670,-0.026,1111122 
COMPS,ioos:station:USF.COMPS:ARP:1,2015-01-01T23:24:00Z,28.4330,-82.6670,-0.009,1111122 
COMPS,ioos:station:USF.COMPS:ARP:1,2015-01-01T23:30:00Z,28.4330,-82.6670,0.005,1111122 
COMPS,ioos:station:USF.COMPS:ARP:1,2015-01-01T23:36:00Z,28.4330,-82.6670,0.022,1111122 
COMPS,ioos:station:USF.COMPS:ARP:1,2015-01-01T23:42:00Z,28.4330,-82.6670,0.042,1111122 
COMPS,ioos:station:USF.COMPS:ARP:1,2015-01-01T23:48:00Z,28.4330,-82.6670,0.059,1111122 
COMPS,ioos:station:USF.COMPS:ARP:1,2015-01-01T23:54:00Z,28.4330,-82.6670,0.078,1111122 
COMPS,ioos:station:USF.COMPS:ARP:1,2015-01-02T00:06:00Z,28.4330,-82.6670,0.112,1111122 
COMPS,ioos:station:USF.COMPS:ARP:1,2015-01-02T00:18:00Z,28.4330,-82.6670,0.149,1111122 
COMPS,ioos:station:USF.COMPS:ARP:1,2015-01-02T00:24:00Z,28.4330,-82.6670,0.166,1111122 
COMPS,ioos:station:USF.COMPS:ARP:1,2015-01-02T00:30:00Z,28.4330,-82.6670,0.181,1111122 
COMPS,ioos:station:USF.COMPS:ARP:1,2015-01-02T00:36:00Z,28.4330,-82.6670,0.2,1111122 
COMPS,ioos:station:USF.COMPS:ARP:1,2015-01-02T00:42:00Z,28.4330,-82.6670,0.216,1111122 
COMPS,ioos:station:USF.COMPS:ARP:1,2015-01-02T00:48:00Z,28.4330,-82.6670,0.23,1111122 
COMPS,ioos:station:USF.COMPS:ARP:1,2015-01-02T00:54:00Z,28.4330,-82.6670,0.247,1111122 
COMPS,ioos:station:USF.COMPS:ARP:1,2015-01-02T01:00:00Z,28.4330,-82.6670,0.259,1111122 
COMPS,ioos:station:USF.COMPS:ARP:1,2015-01-02T01:06:00Z,28.4330,-82.6670,0.272,1111122 
COMPS,ioos:station:USF.COMPS:ARP:1,2015-01-02T01:12:00Z,28.4330,-82.6670,0.284,1111122 
COMPS,ioos:station:USF.COMPS:ARP:1,2015-01-02T01:18:00Z,28.4330,-82.6670,0.295,1111122 
COMPS,ioos:station:USF.COMPS:ARP:1,2015-01-02T01:24:00Z,28.4330,-82.6670,0.306,1111122 
COMPS,ioos:station:USF.COMPS:ARP:1,2015-01-02T01:30:00Z,28.4330,-82.6670,0.319,1111122 
COMPS,ioos:station:USF.COMPS:ARP:1,2015-01-02T01:36:00Z,28.4330,-82.6670,0.326,1111122 
COMPS,ioos:station:USF.COMPS:ARP:1,2015-01-02T01:42:00Z,28.4330,-82.6670,0.329,1111122 
COMPS,ioos:station:USF.COMPS:ARP:1,2015-01-02T01:48:00Z,28.4330,-82.6670,0.343,1111122 
COMPS,ioos:station:USF.COMPS:ARP:1,2015-01-02T01:54:00Z,28.4330,-82.6670,0.349,1111122 
COMPS,ioos:station:USF.COMPS:ARP:1,2015-01-02T02:00:00Z,28.4330,-82.6670,0.35,1111122 
COMPS,ioos:station:USF.COMPS:ARP:1,2015-01-02T02:06:00Z,28.4330,-82.6670,0.361,1111122 
COMPS,ioos:station:USF.COMPS:ARP:1,2015-01-02T02:12:00Z,28.4330,-82.6670,0.362,1111122 
COMPS,ioos:station:USF.COMPS:ARP:1,2015-01-02T02:18:00Z,28.4330,-82.6670,0.361,1111122 
COMPS,ioos:station:USF.COMPS:ARP:1,2015-01-02T02:24:00Z,28.4330,-82.6670,0.366,1111122 
COMPS,ioos:station:USF.COMPS:ARP:1,2015-01-02T02:30:00Z,28.4330,-82.6670,0.365,1111122 
COMPS,ioos:station:USF.COMPS:ARP:1,2015-01-02T02:36:00Z,28.4330,-82.6670,0.366,1111122 
COMPS,ioos:station:USF.COMPS:ARP:1,2015-01-02T02:42:00Z,28.4330,-82.6670,0.36,1111122 
COMPS,ioos:station:USF.COMPS:ARP:1,2015-01-02T02:48:00Z,28.4330,-82.6670,0.365,1111122 
COMPS,ioos:station:USF.COMPS:ARP:1,2015-01-02T02:54:00Z,28.4330,-82.6670,0.364,1111122 
COMPS,ioos:station:USF.COMPS:ARP:1,2015-01-02T03:00:00Z,28.4330,-82.6670,0.357,1111122 
COMPS,ioos:station:USF.COMPS:ARP:1,2015-01-02T03:06:00Z,28.4330,-82.6670,0.358,1111122 
COMPS,ioos:station:USF.COMPS:ARP:1,2015-01-02T03:12:00Z,28.4330,-82.6670,0.367,1111122 
COMPS,ioos:station:USF.COMPS:ARP:1,2015-01-02T03:18:00Z,28.4330,-82.6670,0.362,1111122 
COMPS,ioos:station:USF.COMPS:ARP:1,2015-01-02T03:24:00Z,28.4330,-82.6670,0.364,1111122 